Regional Weather Roundup
Issued by NWS Sioux Falls, SD

Home | Current Version | Previous Version | Text Only | Print | Product List | Glossary On
Versions: 1 2 3 4 5 6 7 8 9 10 11 12 13 14 15 16 17 18 19 20 21 22 23 24 25 26 27 28 29 30 31 32 33 34 35 36 37 38 39 40 41 42 43 44 45 46 47 48 49 50
000
ASUS43 KFSD 312310
RWRFSD

WEATHER ROUNDUP FOR SE SOUTH DAKOTA/SW MINNESOTA/NW IOWA
NATIONAL WEATHER SERVICE SIOUX FALLS SD
600 PM CDT FRI OCT 31 2014

NOTE: "FAIR" INDICATES FEW OR NO CLOUDS BELOW 12,000 FEET WITH NO
SIGNIFICANT WEATHER AND OR OBSTRUCTIONS TO VISIBILITY.


SDZ038>040-050-052>070-010000-
SOUTHEAST SOUTH DAKOTA

CITY           SKY/WX    TMP DP  RH WIND       PRES   REMARKS
CHAMBERLAIN    PTCLDY    38  15  39 SE14      30.34F
HURON          PTCLDY    38  17  42 S9        30.41F
MADISON        FAIR      36  16  44 SE6       30.43F
MITCHELL       CLEAR     39  18  42 SE13      30.43F
SIOUX FALLS    PTCLDY    35  17  47 SE7       30.45F WCI  29
WINNER         FAIR      43   9  24 SE17      30.30F
YANKTON        CLEAR     37  18  44 E6        30.46F
$$

MNZ071-072-080-081-089-090-097-098-010000-
SOUTHWEST MINNESOTA

CITY           SKY/WX    TMP DP  RH WIND       PRES   REMARKS
FAIRMONT       CLEAR     37  12  35 NE6       30.47F
JACKSON        CLEAR     36  12  38 NE5       30.47S
LUVERNE        CLEAR     37  14  38 SE3       30.47S
MARSHALL       CLEAR     37  16  41 SE5       30.47F
MONTEVIDEO     CLEAR     36  21  55 S3        30.49F
PIPESTONE      CLEAR     37  14  38 S3        30.44F
REDWOOD FALLS  CLEAR     38  15  39 E3        30.48F
TRACY          CLEAR     37  18  47 CALM      30.48S
WINDOM         CLEAR     36  16  44 CALM      30.47F
WORTHINGTON    CLEAR     36  16  44 E3        30.47S
$$

IAZ001>003-012>014-020>022-031-032-NEZ013-014-SDZ071-010000-
NORTHWEST IOWA

CITY           SKY/WX    TMP DP  RH WIND       PRES   REMARKS
CHEROKEE       CLEAR     38  17  43 CALM      30.47S
DENISON        CLEAR     39  16  38 N6        30.45S
ESTHERVILLE    CLEAR     34  15  46 NE7       30.47S WCI  28
LE MARS        CLEAR     39  16  38 CALM      30.48S
ORANGE CITY    CLEAR     39  12  33 CALM      30.47S
SHELDON        CLEAR     36  16  44 E5        30.46S
SIOUX CITY     CLEAR     40  17  39 SE3       30.48F
SPENCER        CLEAR     37  18  46 N5        30.47S
STORM LAKE     CLEAR     36  16  44 N5        30.47S
$$

ABBREVIATIONS USED IN REMARKS
   TC - TEMPERATURE IN CELSIUS
  WCI - WIND CHILL INDEX
   HX - HEAT INDEX
  VSB - VISIBILITY




USA.gov is the U.S. government's official web portal to all federal, state and local government web resources and services.